Probability
0 0 0 0 0 0 0 0 0 0 0 0 0 0 0 0 0 0 0 0 0 0 0 0 0 0 0 0 0 0 0 0 0 0 0 0 0 0 0 0 0 0 0 0
0 0 0 0 0 0 0 0 0 0 0 0 0 0 0 0 0 0 0 0 0 0 0 0 0 0 0 0 0 0 0 0 0 0 0 0 0 0 0 0 0 0 0 0
0 0 0 0 0 0 0 0 0 0 0 0 0 0 0 0 0 0 0 0 0 0 0 0 0 0 0 0 0 0 0 0 0 0 0 0 0 0 0 0 0 0 0 0
0 0 0 0 0 0 0 0 0 0 0 0 0 0 0 0 0 0 0 0 0 0 0 0 0 0 0 0 0 0 0 0 0 0 0 0 0 0 0 0 0 0 0 0
0 0 0 0 0 0 0 0 0 0 0 0 0 0 0 0 0 0 0 0 0 0 0 0 0 0 0 0 0 0 0 0 0 0 0 0 0 0 0 0 0 0 0 0
0 0 0 0 0 0 0 0 0 0 0 0 0 0 0 0 0 0 0 0 0 0 0 0 0 0 0 0 0 0 0 0 0 0 0 0 0 0 0 0 0 0 0 0
0 0 0 0 0 0 0 0 0 0 0 0 0 0 0 0 0 0 0 0 0 0 0 0 0 0 0 0 0 0 0 0 0 0 0 0 0 0 0 0 0 0 0 0
0 0 0 0 0 0 0 0 0 0 0 0 0 0 0 0 0 0 0 0 0 0 0 0 0 0 0 0 0 0 0 0 0 0 0 0 0 0 0 0 0 0 0 0
0 0 0 0 0 0 0 0 0 0 0 0 0 0 0 0 0 0 0 0 0 0 0 0 0 0 0 0 0 0 0 0 0 0 0 0 0 0 0 0 0 0 0 0
0 0 0 0 0 0 0 0 0 0 0 0 0 0 0 0 0 0 0 0 0 0 0 0 0 0 0 0 0 0 0 0 0 0 0 0 0 0 0 0 0 0 0 0
0 0 0 0 0 0 0 0 0 0 0 0 0 0 0 0 0 0 0 0 0 0 0 0 0 0 0 0 0 0 0 0 0 0 0 0 0 0 0 0 0 0 0 0
0 0 0 0 0 0 0 0 0 0 0 0 0 0 0 0 0 0 0 0 0 0 0 0 0 0 0 0 0 0 0 0 0 0 0 0 0 0 0 0 0 0 0 0
0 0 0 0 0 0 0 0 0 0 0 0 0 0 0 0 0 0 0 0 0 0 0 0 0 0 0 0 0 0 0 0 0 0 0 0 0 0 0 0 0 0 0 0
0 0 0 0 0 0 0 0 0 0 0 0 0 0 0 0 0 0 0 0 0 0 0 0 0 0 0 0 0 0 0 0 0 0 0 0 0 0 0 0 0 0 0 0
0 0 0 0 0 0 0 0 0 0 0 0 0 0 0 0 0 0 0 0 0 0 0 0 0 0 0 0 0 0 0 0 0 0 0 0 0 0 0 0 0 0 0 0
0 0 0 0 0 0 0 0 0 0 0 0 0 0 0 0 0 0 0 0 0 0 0 0 0 0 0 0 0 0 0 0 0 0 0 0 0 0 0 0 0 0 0 0
0 0 0 0 0 0 0 0 0 0 0 0 0 0 0 0 0 0 0 0 0 0 0 0 0 0 0 0 0 0 0 0 0 0 0 0 0 0 0 0 0 0 0 0
0 0 0 0 0 0 0 0 0 0 0 0 0 0 0 0 0 0 0 0 0 0 0 0 0 0 0 0 0 0 0 0 0 0 0 0 0 0 0 0 0 0 0 0
0 0 0 0 0 0 0 0 0 0 0 0 0 0 0 0 0 0 0 0 0 0 0 0 0 0 0 0 0 0 0 0 0 0 0 0 0 0 0 0 0 0 0 0
0 0 0 0 0 0 0 0 0 0 0 0 0 0 0 0 0 0 0 0 0 0 0 0 0 0 0 0 0 0 0 0 0 0 0 0 0 0 0 0 0 0 0 0
0 0 0 0 0 0 0 0 0 0 0 0 0 0 0 0 0 0 0 0 0 0 0 0 0 0 0 0 0 0 0 0 0 0 0 0 0 0 0 0 0 0 0 0
0 0 0 0 0 0 0 0 0 0 0 0 0 0 0 0 0 0 0 0 0 0 0 0 0 0 0 0 0 0 0 0 0 0 0 0 0 0 0 0 0 0 0 0
0 0 0 0 0 0 0 0 0 0 0 0 0 0 0 0 0 0 0 0 0 0 0 0 0 0 0 0 0 0 0 0 0 0 0 0 0 0 0 0 0 0 0 0
0 0 0 0 0 0 0 0 0 0 0 0 0 0 0 0 0 0 0 0 0 0 0 0 0 0 0 0 0 0 0 0 0 0 0 0 0 0 0 0 0 0 0 0
0 0 0 0 0 0 0 0 0 0 0 0 0 0 0 0 0 0 0 0 0 0 0 0 0 0 0 0 0 0 0 0 0 0 0 0 0 0 0 0 0 0 0 0
0 0 0 0 0 0 0 0 0 0 0 0 0 0 0 0 0 0 0 0 0 0 0 0 0 0 0 0 0 0 0 0 0 0 0 0 0 0 0 0 0 0 0 0
Height
5746 5745 5743 5741 5739 5736 5734 5731 5729 5726 5722 5719 5716 5713 5710 5706 5703 5700 5697 5695 5692 5690 5688 5686 5685 5684 5684 5685 5685 5686 5688 5690 5692 5695 5699 5702 5705 5709 5712 5716 5720 5726 5731 5737
5741 5739 5738 5735 5733 5731 5728 5726 5724 5721 5717 5713 5711 5708 5705 5702 5698 5695 5692 5689 5687 5685 5683 5682 5680 5680 5679 5679 5679 5680 5681 5683 5686 5688 5691 5694 5697 5700 5704 5708 5713 5718 5723 5729
5734 5734 5731 5729 5727 5725 5723 5721 5718 5715 5712 5708 5705 5704 5701 5697 5694 5691 5688 5685 5683 5681 5679 5677 5676 5675 5675 5674 5674 5675 5676 5677 5679 5682 5683 5686 5690 5693 5697 5700 5705 5710 5715 5720
5728 5727 5725 5723 5721 5719 5717 5715 5712 5709 5706 5704 5701 5697 5697 5693 5690 5686 5684 5682 5679 5677 5675 5673 5672 5671 5670 5670 5669 5669 5670 5671 5673 5675 5678 5680 5683 5686 5690 5693 5697 5702 5708 5713
5721 5720 5718 5717 5716 5713 5711 5709 5707 5704 5701 5699 5696 5692 5693 5689 5686 5683 5680 5677 5675 5673 5671 5669 5668 5666 5666 5665 5665 5664 5665 5666 5667 5669 5672 5674 5676 5679 5682 5686 5690 5695 5700 5705
5714 5712 5711 5710 5709 5707 5705 5703 5700 5698 5695 5694 5692 5688 5686 5684 5681 5678 5676 5673 5671 5669 5667 5665 5664 5662 5662 5661 5660 5660 5660 5660 5661 5663 5665 5667 5669 5672 5675 5679 5683 5687 5692 5697
5705 5705 5704 5703 5702 5700 5698 5697 5694 5691 5689 5688 5686 5682 5682 5679 5676 5673 5671 5669 5667 5666 5664 5662 5660 5659 5658 5657 5656 5656 5656 5656 5656 5657 5659 5661 5663 5665 5668 5671 5675 5680 5684 5689
5696 5697 5696 5695 5694 5693 5691 5690 5688 5685 5683 5682 5680 5677 5678 5674 5671 5668 5666 5665 5663 5661 5660 5658 5656 5655 5654 5653 5652 5652 5651 5651 5651 5652 5654 5655 5657 5659 5662 5665 5668 5672 5677 5681
5687 5688 5688 5687 5686 5685 5683 5682 5681 5678 5675 5674 5673 5673 5672 5669 5666 5664 5662 5660 5659 5657 5656 5654 5652 5651 5650 5649 5648 5647 5646 5646 5646 5647 5648 5649 5651 5653 5656 5658 5661 5665 5669 5674
5677 5678 5679 5678 5678 5677 5676 5674 5673 5670 5667 5666 5666 5666 5666 5664 5661 5659 5657 5655 5654 5652 5651 5650 5648 5646 5645 5644 5643 5642 5641 5641 5641 5642 5643 5644 5645 5647 5649 5652 5654 5658 5662 5666
5668 5669 5670 5669 5669 5669 5668 5667 5664 5663 5661 5659 5657 5661 5660 5658 5655 5653 5652 5650 5648 5647 5646 5644 5643 5642 5641 5639 5638 5637 5637 5636 5637 5637 5637 5638 5639 5641 5643 5645 5647 5650 5654 5657
5658 5658 5659 5660 5660 5659 5659 5658 5657 5656 5654 5652 5650 5654 5653 5651 5649 5647 5646 5644 5643 5642 5640 5639 5638 5637 5636 5635 5634 5632 5632 5631 5631 5631 5632 5632 5633 5635 5636 5638 5640 5643 5646 5649
5648 5648 5648 5649 5652 5650 5649 5648 5647 5646 5645 5643 5643 5647 5646 5644 5642 5640 5639 5637 5636 5635 5635 5634 5633 5631 5630 5630 5628 5627 5627 5627 5626 5626 5626 5627 5627 5628 5630 5631 5633 5635 5637 5639
5637 5638 5638 5639 5639 5639 5639 5639 5638 5637 5636 5635 5636 5637 5638 5636 5634 5633 5632 5631 5630 5629 5628 5628 5627 5626 5625 5624 5623 5622 5621 5621 5621 5621 5621 5621 5622 5622 5623 5624 5626 5627 5629 5631
5625 5626 5627 5627 5628 5627 5628 5629 5629 5628 5627 5627 5628 5628 5629 5628 5627 5626 5624 5624 5623 5622 5622 5621 5620 5619 5619 5618 5617 5617 5616 5615 5615 5615 5615 5616 5616 5616 5616 5616 5617 5619 5621 5622
5614 5615 5615 5616 5617 5616 5616 5618 5618 5618 5618 5618 5618 5620 5621 5620 5619 5618 5617 5616 5616 5615 5615 5614 5613 5613 5612 5612 5611 5611 5610 5609 5609 5609 5609 5609 5609 5609 5609 5609 5610 5611 5612 5613
5603 5603 5603 5604 5605 5604 5606 5609 5608 5608 5609 5609 5609 5612 5611 5611 5610 5609 5608 5608 5608 5608 5607 5607 5606 5605 5605 5605 5604 5604 5603 5603 5602 5602 5602 5601 5601 5601 5601 5601 5601 5602 5602 5603
5592 5592 5591 5592 5593 5592 5600 5599 5598 5598 5599 5600 5600 5601 5601 5601 5601 5600 5600 5600 5600 5599 5599 5599 5598 5598 5597 5597 5597 5597 5596 5596 5595 5594 5594 5593 5593 5593 5593 5593 5593 5593 5594 5594
5580 5580 5580 5580 5579 5581 5588 5588 5588 5587 5589 5590 5590 5591 5592 5591 5591 5592 5592 5591 5591 5591 5591 5590 5590 5589 5589 5589 5589 5588 5588 5587 5587 5586 5586 5585 5585 5584 5584 5584 5584 5584 5585 5585
5569 5569 5569 5569 5568 5571 5578 5578 5576 5577 5578 5581 5580 5581 5582 5582 5582 5584 5584 5583 5583 5582 5582 5582 5581 5581 5580 5580 5580 5580 5579 5579 5578 5578 5577 5576 5576 5576 5575 5575 5575 5575 5575 5575
5558 5558 5558 5558 5557 5560 5565 5566 5566 5567 5570 5571 5570 5571 5572 5572 5573 5574 5574 5574 5573 5573 5573 5572 5572 5572 5571 5571 5571 5570 5570 5569 5569 5568 5568 5567 5567 5566 5566 5566 5565 5565 5565 5565
5546 5547 5547 5547 5547 5552 5554 5554 5556 5557 5558 5559 5560 5561 5561 5562 5562 5563 5563 5563 5563 5563 5563 5563 5563 5562 5562 5561 5561 5560 5560 5559 5559 5559 5558 5558 5557 5556 5556 5555 5555 5554 5554 5553
5535 5537 5536 5537 5539 5541 5542 5542 5544 5545 5547 5548 5549 5550 5550 5551 5552 5552 5553 5553 5553 5553 5553 5553 5553 5552 5551 5551 5551 5550 5550 5549 5549 5548 5548 5547 5546 5546 5544 5544 5543 5542 5541 5541
5524 5525 5524 5524 5527 5529 5530 5531 5533 5534 5535 5536 5537 5539 5540 5540 5541 5541 5542 5543 5543 5543 5543 5543 5542 5542 5541 5541 5540 5540 5539 5539 5538 5538 5537 5536 5536 5535 5533 5532 5531 5530 5530 5529
5513 5513 5512 5513 5516 5517 5519 5520 5521 5523 5524 5525 5527 5527 5528 5529 5530 5530 5531 5532 5532 5532 5532 5532 5531 5531 5530 5530 5530 5529 5529 5528 5527 5527 5526 5525 5524 5523 5522 5521 5520 5519 5518 5517
5504 5503 5502 5503 5506 5506 5508 5509 5510 5511 5512 5514 5515 5516 5517 5518 5519 5519 5520 5520 5521 5521 5521 5521 5521 5520 5520 5519 5519 5518 5518 5517 5516 5515 5514 5514 5513 5512 5511 5510 5509 5507 5506 5505
Wind_Speed
22 21 20 20 20 21 21 21 21 21 22 22 22 22 21 20 19 18 18 18 18 18 18 19 19 18 19 21 23 23 26 29 31 31 32 34 36 38 40 41 40 42 44 43
22 21 21 21 21 21 22 22 22 22 22 23 22 22 21 20 18 18 18 18 18 18 18 18 18 18 18 19 20 22 24 27 29 30 31 32 34 36 37 40 38 40 42 43
22 21 21 21 21 21 22 23 22 22 22 22 23 21 20 19 18 17 18 18 17 17 17 17 17 18 17 17 18 19 23 25 26 28 29 30 32 35 37 38 37 37 39 41
23 22 22 22 21 22 22 22 23 23 23 23 23 22 18 18 17 17 17 17 16 16 16 16 16 16 16 16 17 18 21 23 24 27 29 28 29 31 35 38 38 37 38 40
24 23 23 22 22 23 23 23 23 24 24 23 22 23 18 17 17 17 17 17 16 15 15 15 16 16 16 17 18 18 20 22 23 25 27 28 28 30 33 36 38 38 39 40
26 26 25 24 24 24 24 24 24 24 24 24 22 23 20 18 18 18 17 16 16 15 15 15 15 16 17 17 18 19 21 21 22 22 25 27 28 29 31 34 37 38 37 38
27 27 26 26 25 25 25 25 26 26 25 24 23 22 20 19 19 18 18 17 16 15 15 15 15 16 16 17 17 18 20 21 22 22 24 25 27 29 32 33 36 37 37 37
28 27 26 26 26 26 25 26 26 27 27 26 24 23 20 20 19 19 19 18 17 17 16 16 16 16 17 17 17 18 19 21 22 22 23 24 26 28 30 32 35 36 37 37
28 28 26 26 26 27 26 26 26 28 28 27 25 23 21 20 20 19 19 18 18 18 18 18 17 17 17 18 18 18 20 21 22 23 24 24 25 25 28 30 33 35 38 36
30 30 28 27 27 27 27 27 27 27 29 29 27 24 22 21 21 20 19 19 19 19 19 19 18 18 18 18 18 18 19 20 21 22 23 24 25 25 25 27 28 31 35 35
32 32 31 30 28 28 28 28 28 28 29 30 29 25 22 22 21 20 20 19 19 20 20 20 19 19 19 19 19 18 19 20 20 21 23 24 25 26 26 28 28 29 32 34
33 34 33 31 30 29 28 28 28 29 30 30 31 27 24 23 22 22 21 21 20 20 20 19 19 19 20 20 20 19 19 20 20 20 21 23 24 26 27 27 28 30 33 35
34 34 35 33 32 30 30 29 30 31 32 32 31 28 25 24 24 24 23 23 22 21 20 20 20 20 20 20 20 20 20 20 20 20 20 21 23 24 26 27 29 31 33 35
36 35 36 35 33 33 32 31 31 32 33 33 31 28 26 26 25 25 25 24 23 23 22 21 21 21 21 21 21 20 21 21 21 21 21 21 23 24 25 27 30 31 33 35
37 37 37 36 35 35 35 33 33 34 34 34 32 30 27 27 27 27 26 26 25 24 24 23 22 22 21 22 22 21 21 22 22 22 22 23 23 24 25 27 29 31 33 34
38 38 37 37 36 37 37 35 35 35 35 35 34 31 29 29 29 28 27 27 26 26 26 25 24 24 23 23 23 23 22 23 23 23 24 25 25 25 26 28 29 32 33 35
40 39 39 38 37 38 37 34 35 36 35 35 34 31 30 30 29 29 29 28 28 27 27 26 26 26 25 25 25 25 25 25 25 25 25 25 25 25 26 28 30 32 34 35
39 39 40 40 39 40 35 33 35 35 33 33 33 31 30 30 30 30 29 28 28 28 28 28 27 27 27 27 27 27 27 28 28 28 28 28 28 28 28 29 30 31 32 33
38 39 40 41 41 40 34 33 33 33 32 31 32 31 30 31 31 30 29 29 28 28 28 28 28 28 28 28 28 29 28 29 29 30 30 30 30 29 29 29 29 30 32 34
35 37 38 40 41 41 35 34 33 33 32 30 31 31 31 31 32 31 30 30 30 30 30 30 30 29 29 29 29 29 29 30 30 31 31 31 31 31 31 31 31 32 33 35
35 36 37 38 40 40 37 36 35 35 33 31 32 32 32 31 32 32 32 32 32 32 31 31 31 31 30 30 30 30 30 30 31 32 33 33 32 33 33 33 33 34 35 36
35 36 37 37 39 38 36 36 36 35 33 33 33 34 33 33 33 33 33 33 33 33 33 33 32 32 32 32 32 32 32 32 32 33 33 34 34 35 35 35 35 36 37 38
35 35 36 38 38 37 36 36 36 36 34 34 34 35 35 35 35 34 34 33 34 34 34 34 34 33 33 33 33 33 33 33 33 34 34 35 35 36 37 37 37 37 37 38
34 34 36 37 37 36 37 36 36 35 35 36 36 36 36 36 36 35 35 35 35 35 35 35 34 34 35 34 34 33 33 34 34 34 34 35 36 37 37 38 38 38 38 38
33 34 35 36 35 36 36 36 36 36 37 37 37 37 36 36 36 36 36 36 35 35 35 35 35 35 35 35 35 35 35 35 35 35 35 36 36 37 37 38 38 38 38 39
30 32 34 33 32 35 34 34 34 34 35 36 36 36 36 36 36 36 36 35 35 35 35 35 36 35 35 35 35 35 35 35 35 36 37 37 37 38 38 38 38 38 39 40
Wind_Direction
293 294 296 296 296 297 300 303 306 308 307 306 306 306 307 307 302 296 293 291 289 289 289 284 278 272 267 263 258 253 249 243 240 237 237 238 235 233 230 229 229 227 225 226
289 291 292 292 293 295 299 302 305 306 307 306 305 306 307 308 305 299 295 292 291 289 291 287 280 271 268 265 260 254 249 244 242 239 238 238 234 232 231 229 229 227 224 225
287 290 289 290 293 295 298 301 303 305 306 307 306 306 306 305 304 301 297 295 292 290 291 287 281 275 272 269 264 258 252 247 245 241 240 238 234 233 233 231 229 226 224 224
283 286 287 288 291 292 296 299 300 303 304 307 308 307 307 305 304 302 298 298 296 293 293 288 282 277 272 267 265 262 256 249 248 245 241 239 239 236 235 232 230 228 227 226
281 282 284 285 288 290 293 295 297 299 301 303 306 307 309 306 305 302 301 300 299 297 297 291 284 281 273 266 265 263 260 252 249 247 243 241 241 240 236 233 231 229 229 228
277 278 280 283 285 287 290 292 294 295 298 300 306 306 308 307 306 306 303 303 303 300 297 294 290 284 277 271 267 265 259 255 252 251 247 243 242 241 238 235 233 229 229 230
275 276 278 280 282 284 288 291 292 293 295 299 302 302 306 307 304 304 304 301 300 300 298 294 292 286 278 272 269 266 262 259 254 255 252 248 243 241 239 238 234 231 231 233
276 276 276 278 279 282 285 288 290 292 294 295 296 298 303 304 302 302 302 298 296 296 294 294 291 285 279 274 272 268 265 261 256 256 253 250 246 241 239 239 238 235 235 235
276 275 276 277 278 280 282 284 286 287 289 290 291 293 296 299 299 298 299 296 296 293 291 292 290 284 281 278 276 272 268 264 260 257 252 250 248 245 241 241 238 237 235 235
274 275 275 277 277 278 280 282 284 284 287 288 289 291 294 295 296 297 296 295 293 291 292 292 289 282 282 280 278 274 270 266 264 260 253 250 247 242 242 240 237 238 236 236
274 274 274 276 277 278 279 280 281 282 282 285 287 288 291 293 294 292 290 290 290 289 291 290 289 285 283 282 278 275 272 268 265 262 255 250 249 245 243 243 240 241 241 240
275 273 273 274 274 276 277 278 278 278 279 280 282 285 288 288 289 289 287 286 285 287 289 289 287 283 282 283 281 276 272 269 266 262 256 252 249 249 248 245 245 245 243 243
273 272 273 272 272 272 273 273 274 274 275 276 278 283 285 284 283 284 284 283 282 283 286 287 286 283 282 282 281 278 272 269 265 262 258 254 250 250 251 250 248 248 247 245
270 269 270 272 273 272 271 272 272 272 274 275 277 280 280 280 280 280 279 279 279 279 281 282 282 281 280 279 279 278 274 270 267 265 262 257 254 253 253 254 251 249 248 246
268 268 268 269 270 271 271 271 270 270 272 274 276 277 278 277 278 278 276 275 275 277 278 278 278 279 278 276 276 277 276 273 267 264 263 261 260 258 256 253 250 250 251 250
267 267 267 268 269 269 269 270 270 269 271 272 273 273 275 276 276 275 275 272 272 274 276 277 274 275 275 275 274 274 275 275 271 266 265 263 262 264 261 257 254 253 254 254
267 268 267 268 268 267 267 269 270 270 269 270 271 273 272 272 273 274 273 271 271 272 273 275 274 272 272 273 272 272 274 274 272 270 269 267 267 266 264 262 259 257 255 256
267 268 269 269 269 268 269 268 269 270 269 269 269 269 268 269 270 271 271 271 271 272 272 272 272 271 270 270 271 271 273 272 271 271 272 271 270 268 266 265 264 260 258 257
266 267 268 269 269 269 267 269 270 270 268 268 268 267 267 267 266 268 270 270 271 272 272 273 273 272 269 270 271 271 271 272 271 271 271 271 271 270 269 269 267 264 261 261
265 266 268 269 269 268 268 268 270 270 267 267 268 267 268 267 265 266 267 268 270 271 272 272 273 272 270 270 271 272 273 273 272 272 272 271 271 271 271 270 268 268 266 265
265 265 266 267 268 268 268 267 269 269 269 268 267 266 268 268 266 265 265 267 270 272 273 273 273 272 271 271 271 272 272 273 273 272 272 271 271 271 272 271 270 270 269 268
269 267 266 266 266 266 266 267 267 268 267 266 266 265 266 266 266 265 266 268 269 271 272 273 272 272 271 272 272 272 271 271 272 272 272 272 272 272 272 272 271 271 270 270
268 269 268 266 266 266 265 266 267 266 266 266 266 265 265 265 266 266 266 268 269 270 270 271 272 272 272 272 272 272 272 272 272 272 273 273 273 274 274 274 273 273 273 273
266 267 267 266 264 263 263 264 266 266 265 265 265 266 267 266 265 266 267 267 268 269 269 270 271 271 270 270 270 271 272 272 272 273 273 273 274 274 274 274 275 275 275 275
268 267 266 266 264 262 263 263 264 264 264 264 264 266 267 267 266 266 266 266 267 267 268 270 271 273 272 270 270 271 272 272 273 273 274 274 275 275 275 275 276 276 276 276
269 268 267 267 265 265 263 262 263 263 263 264 264 265 266 266 266 267 267 266 267 268 268 269 270 271 271 271 271 272 272 272 272 273 274 275 275 276 276 275 276 276 277 277